Year,Month,Day,Hour,Minute,Value (Times are PST for temperature in C)
2018,07,03,00,00,14.30
2018,07,03,00,01,14.20
2018,07,03,00,02,14.20
2018,07,03,00,03,14.20
2018,07,03,00,04,14.20
2018,07,03,00,05,14.20
2018,07,03,00,06,14.20
2018,07,03,00,07,14.10
2018,07,03,00,08,14.00
2018,07,03,00,09,13.90
2018,07,03,00,10,13.90
2018,07,03,00,11,13.80
2018,07,03,00,12,13.80
2018,07,03,00,13,13.80
2018,07,03,00,14,13.80
2018,07,03,00,15,13.70
2018,07,03,00,16,13.60
2018,07,03,00,17,13.50
2018,07,03,00,18,13.40
2018,07,03,00,19,13.40
2018,07,03,00,20,13.30
2018,07,03,00,21,13.30
2018,07,03,00,22,13.30
2018,07,03,00,23,13.30
2018,07,03,00,24,13.30
2018,07,03,00,25,13.30
2018,07,03,00,26,13.30
2018,07,03,00,27,13.30
2018,07,03,00,28,13.40
2018,07,03,00,29,13.40
2018,07,03,00,30,13.40
2018,07,03,00,31,13.50
2018,07,03,00,32,13.60
2018,07,03,00,33,13.60
2018,07,03,00,34,13.70
2018,07,03,00,35,13.70
2018,07,03,00,36,13.70
2018,07,03,00,37,13.70
2018,07,03,00,38,13.70
2018,07,03,00,39,13.70
2018,07,03,00,40,13.70
2018,07,03,00,41,13.70
2018,07,03,00,42,13.70
2018,07,03,00,43,13.60
2018,07,03,00,44,13.60
2018,07,03,00,45,13.60
2018,07,03,00,46,13.50
2018,07,03,00,47,13.50
2018,07,03,00,48,13.40
2018,07,03,00,49,13.30
2018,07,03,00,50,13.20
2018,07,03,00,51,13.20
2018,07,03,00,52,13.10
2018,07,03,00,53,13.00
2018,07,03,00,54,12.90
2018,07,03,00,55,12.90
2018,07,03,00,56,12.80
2018,07,03,00,57,12.70
2018,07,03,00,58,12.70
2018,07,03,00,59,12.60
2018,07,03,01,00,12.50
2018,07,03,01,01,12.40
2018,07,03,01,02,12.40
2018,07,03,01,03,12.30
2018,07,03,01,04,12.30
2018,07,03,01,05,12.20
2018,07,03,01,06,12.20
2018,07,03,01,07,12.20
2018,07,03,01,08,12.30
2018,07,03,01,09,12.30
2018,07,03,01,10,12.40
2018,07,03,01,11,12.40
2018,07,03,01,12,12.50
2018,07,03,01,13,12.50
2018,07,03,01,14,12.60
2018,07,03,01,15,12.60
2018,07,03,01,16,12.70
2018,07,03,01,17,12.60
2018,07,03,01,18,12.60
2018,07,03,01,19,12.60
2018,07,03,01,20,12.50
2018,07,03,01,21,12.50
2018,07,03,01,22,12.40
2018,07,03,01,23,12.40
2018,07,03,01,24,12.30
2018,07,03,01,25,12.20
2018,07,03,01,26,12.20
2018,07,03,01,27,12.10
2018,07,03,01,28,12.00
2018,07,03,01,29,12.00
2018,07,03,01,30,11.90
2018,07,03,01,31,11.90
2018,07,03,01,32,11.80
2018,07,03,01,33,11.80
2018,07,03,01,34,11.70
2018,07,03,01,35,11.70
2018,07,03,01,36,11.70
2018,07,03,01,37,11.70
2018,07,03,01,38,11.70
2018,07,03,01,39,11.60
2018,07,03,01,40,11.60
2018,07,03,01,41,11.60
2018,07,03,01,42,11.60
2018,07,03,01,43,11.60
2018,07,03,01,44,11.60
2018,07,03,01,45,11.60
2018,07,03,01,46,11.60
2018,07,03,01,47,11.60
2018,07,03,01,48,11.60
2018,07,03,01,49,11.70
2018,07,03,01,50,11.70
2018,07,03,01,51,11.80
2018,07,03,01,52,11.80
2018,07,03,01,53,11.80
2018,07,03,01,54,11.80
2018,07,03,01,55,11.80
2018,07,03,01,56,11.80
2018,07,03,01,57,11.80
2018,07,03,01,58,11.80
2018,07,03,01,59,11.80
2018,07,03,02,00,11.80
2018,07,03,02,01,11.80
2018,07,03,02,02,11.70
2018,07,03,02,03,11.70
2018,07,03,02,04,11.70
2018,07,03,02,05,11.70
2018,07,03,02,06,11.70
2018,07,03,02,07,11.60
2018,07,03,02,08,11.60
2018,07,03,02,09,11.60
2018,07,03,02,10,11.50
2018,07,03,02,11,11.50
2018,07,03,02,12,11.40
2018,07,03,02,13,11.40
2018,07,03,02,14,11.30
2018,07,03,02,15,11.20
2018,07,03,02,16,11.20
2018,07,03,02,17,11.10
2018,07,03,02,18,11.00
2018,07,03,02,19,11.00
2018,07,03,02,20,10.90
2018,07,03,02,21,10.90
2018,07,03,02,22,10.90
2018,07,03,02,23,10.90
2018,07,03,02,24,10.80
2018,07,03,02,25,10.80
2018,07,03,02,26,10.80
2018,07,03,02,27,10.70
2018,07,03,02,28,10.70
2018,07,03,02,29,10.70
2018,07,03,02,30,10.70
2018,07,03,02,31,10.60
2018,07,03,02,32,10.60
2018,07,03,02,33,10.50
2018,07,03,02,34,10.50
2018,07,03,02,35,10.50
2018,07,03,02,36,10.40
2018,07,03,02,37,10.40
2018,07,03,02,38,10.40
2018,07,03,02,39,10.40
2018,07,03,02,40,10.40
2018,07,03,02,41,10.40
2018,07,03,02,42,10.40
2018,07,03,02,43,10.40
2018,07,03,02,44,10.50
2018,07,03,02,45,10.40
2018,07,03,02,46,10.50
2018,07,03,02,47,10.50
2018,07,03,02,48,10.50
2018,07,03,02,49,10.50
2018,07,03,02,50,10.50
2018,07,03,02,51,10.40
2018,07,03,02,52,10.40
2018,07,03,02,53,10.50
2018,07,03,02,54,10.50
2018,07,03,02,55,10.50
2018,07,03,02,56,10.60
2018,07,03,02,57,10.60
2018,07,03,02,58,10.70
2018,07,03,02,59,10.70
2018,07,03,03,00,10.80
2018,07,03,03,01,10.80
2018,07,03,03,02,10.80
2018,07,03,03,03,10.80
2018,07,03,03,04,10.90
2018,07,03,03,05,10.90
2018,07,03,03,06,10.80
2018,07,03,03,07,10.80
2018,07,03,03,08,10.80
2018,07,03,03,09,10.80
2018,07,03,03,10,10.80
2018,07,03,03,11,10.70
2018,07,03,03,12,10.70
2018,07,03,03,13,10.70
2018,07,03,03,14,10.70
2018,07,03,03,15,10.60
2018,07,03,03,16,10.60
2018,07,03,03,17,10.60
2018,07,03,03,18,10.50
2018,07,03,03,19,10.50
2018,07,03,03,20,10.40
2018,07,03,03,21,10.40
2018,07,03,03,22,10.30
2018,07,03,03,23,10.30
2018,07,03,03,24,10.30
2018,07,03,03,25,10.30
2018,07,03,03,26,10.20
2018,07,03,03,27,10.20
2018,07,03,03,28,10.20
2018,07,03,03,29,10.10
2018,07,03,03,30,10.10
2018,07,03,03,31,10.10
2018,07,03,03,32,10.10
2018,07,03,03,33,10.10
2018,07,03,03,34,10.10
2018,07,03,03,35,10.10
2018,07,03,03,36,10.00
2018,07,03,03,37,10.00
2018,07,03,03,38,10.00
2018,07,03,03,39,9.90
2018,07,03,03,40,9.90
2018,07,03,03,41,9.90
2018,07,03,03,42,9.90
2018,07,03,03,43,9.90
2018,07,03,03,44,9.90
2018,07,03,03,45,9.90
2018,07,03,03,46,9.90
2018,07,03,03,47,9.90
2018,07,03,03,48,9.90
2018,07,03,03,49,9.90
2018,07,03,03,50,9.90
2018,07,03,03,51,9.90
2018,07,03,03,52,9.90
2018,07,03,03,53,9.90
2018,07,03,03,54,9.90
2018,07,03,03,55,9.90
2018,07,03,03,56,9.90
2018,07,03,03,57,9.90
2018,07,03,03,58,9.90
2018,07,03,03,59,9.90
2018,07,03,04,00,9.80
2018,07,03,04,01,9.90
2018,07,03,04,02,9.90
2018,07,03,04,03,9.80
2018,07,03,04,04,9.80
2018,07,03,04,05,9.80
2018,07,03,04,06,9.80
2018,07,03,04,07,9.80
2018,07,03,04,08,9.80
2018,07,03,04,09,9.80
2018,07,03,04,10,9.80
2018,07,03,04,11,9.80
2018,07,03,04,12,9.70
2018,07,03,04,13,9.70
2018,07,03,04,14,9.70
2018,07,03,04,15,9.70
2018,07,03,04,16,9.70
2018,07,03,04,17,9.70
2018,07,03,04,18,9.70
2018,07,03,04,19,9.70
2018,07,03,04,20,9.70
2018,07,03,04,21,9.70
2018,07,03,04,22,9.70
2018,07,03,04,23,9.70
2018,07,03,04,24,9.70
2018,07,03,04,25,9.70
2018,07,03,04,26,9.70
2018,07,03,04,27,9.80
2018,07,03,04,28,9.80
2018,07,03,04,29,9.80
2018,07,03,04,30,9.80
2018,07,03,04,31,9.80
2018,07,03,04,32,9.80
2018,07,03,04,33,9.80
2018,07,03,04,34,9.80
2018,07,03,04,35,9.80
2018,07,03,04,36,9.80
2018,07,03,04,37,9.80
2018,07,03,04,38,9.80
2018,07,03,04,39,9.80
2018,07,03,04,40,9.80
2018,07,03,04,41,9.80
2018,07,03,04,42,9.70
2018,07,03,04,43,9.70
2018,07,03,04,44,9.70
2018,07,03,04,45,9.70
2018,07,03,04,46,9.70
2018,07,03,04,47,9.70
2018,07,03,04,48,9.70
2018,07,03,04,49,9.70
2018,07,03,04,50,9.70
2018,07,03,04,51,9.60
2018,07,03,04,52,9.70
2018,07,03,04,53,9.70
2018,07,03,04,54,9.70
2018,07,03,04,55,9.70
2018,07,03,04,56,9.70
2018,07,03,04,57,9.60
2018,07,03,04,58,9.60
2018,07,03,04,59,9.70
2018,07,03,05,00,9.70
2018,07,03,05,01,9.70
2018,07,03,05,02,9.70
2018,07,03,05,03,9.70
2018,07,03,05,04,9.70
2018,07,03,05,05,9.70
2018,07,03,05,06,9.70
2018,07,03,05,07,9.70
2018,07,03,05,08,9.60
2018,07,03,05,09,9.60
2018,07,03,05,10,9.60
2018,07,03,05,11,9.60
2018,07,03,05,12,9.60
2018,07,03,05,13,9.50
2018,07,03,05,14,9.50
2018,07,03,05,15,9.50
2018,07,03,05,16,9.50
2018,07,03,05,17,9.60
2018,07,03,05,18,9.50
2018,07,03,05,19,9.50
2018,07,03,05,20,9.40
2018,07,03,05,21,9.40
2018,07,03,05,22,9.30
2018,07,03,05,23,9.30
2018,07,03,05,24,9.30
2018,07,03,05,25,9.20
2018,07,03,05,26,9.20
2018,07,03,05,27,9.20
2018,07,03,05,28,9.20
2018,07,03,05,29,9.20
2018,07,03,05,30,9.20
2018,07,03,05,31,9.20
2018,07,03,05,32,9.20
2018,07,03,05,33,9.20
2018,07,03,05,34,9.20
2018,07,03,05,35,9.20
2018,07,03,05,36,9.20
2018,07,03,05,37,9.20
2018,07,03,05,38,9.20
2018,07,03,05,39,9.10
2018,07,03,05,40,9.10
2018,07,03,05,41,9.10
2018,07,03,05,42,9.10
2018,07,03,05,43,9.10
2018,07,03,05,44,9.10
2018,07,03,05,45,9.10
2018,07,03,05,46,9.10
2018,07,03,05,47,9.10
2018,07,03,05,48,9.10
2018,07,03,05,49,9.00
2018,07,03,05,50,9.00
2018,07,03,05,51,9.00
2018,07,03,05,52,9.00
2018,07,03,05,53,9.00
2018,07,03,05,54,9.00
2018,07,03,05,55,9.00
2018,07,03,05,56,9.10
2018,07,03,05,57,9.10
2018,07,03,05,58,9.10
2018,07,03,05,59,9.20
2018,07,03,06,00,9.20
2018,07,03,06,01,9.30
2018,07,03,06,02,9.30
2018,07,03,06,03,9.40
2018,07,03,06,04,9.50
2018,07,03,06,05,9.60
2018,07,03,06,06,9.70
2018,07,03,06,07,9.80
2018,07,03,06,08,9.90
2018,07,03,06,09,10.00
2018,07,03,06,10,10.10
2018,07,03,06,11,10.10
2018,07,03,06,12,10.20
2018,07,03,06,13,10.20
2018,07,03,06,14,10.30
2018,07,03,06,15,10.30
2018,07,03,06,16,10.30
2018,07,03,06,17,10.30
2018,07,03,06,18,10.40
2018,07,03,06,19,10.40
2018,07,03,06,20,10.40
2018,07,03,06,21,10.40
2018,07,03,06,22,10.40
2018,07,03,06,23,10.50
2018,07,03,06,24,10.50
2018,07,03,06,25,10.40
2018,07,03,06,26,10.40
2018,07,03,06,27,10.30
2018,07,03,06,28,10.30
2018,07,03,06,29,10.20
2018,07,03,06,30,10.20
2018,07,03,06,31,10.10
2018,07,03,06,32,10.10
2018,07,03,06,33,10.00
2018,07,03,06,34,10.00
2018,07,03,06,35,9.90
2018,07,03,06,36,9.90
2018,07,03,06,37,9.90
2018,07,03,06,38,9.90
2018,07,03,06,39,9.90
2018,07,03,06,40,9.90
2018,07,03,06,41,9.90
2018,07,03,06,42,9.90
2018,07,03,06,43,9.90
2018,07,03,06,44,9.90
2018,07,03,06,45,9.90
2018,07,03,06,46,9.90
2018,07,03,06,47,9.90
2018,07,03,06,48,10.00
2018,07,03,06,49,10.00
2018,07,03,06,50,10.00
2018,07,03,06,51,10.10
2018,07,03,06,52,10.10
2018,07,03,06,53,10.10
2018,07,03,06,54,10.10
2018,07,03,06,55,10.10
2018,07,03,06,56,10.20
2018,07,03,06,57,10.20
2018,07,03,06,58,10.20
2018,07,03,06,59,10.30
2018,07,03,07,00,10.30
2018,07,03,07,01,10.40
2018,07,03,07,02,10.40
2018,07,03,07,03,10.40
2018,07,03,07,04,10.50
2018,07,03,07,05,10.50
2018,07,03,07,06,10.60
2018,07,03,07,07,10.60
2018,07,03,07,08,10.70
2018,07,03,07,09,10.70
2018,07,03,07,10,10.80
2018,07,03,07,11,10.80
2018,07,03,07,12,10.80
2018,07,03,07,13,10.80
2018,07,03,07,14,10.90
2018,07,03,07,15,10.90
2018,07,03,07,16,10.90
2018,07,03,07,17,11.00
2018,07,03,07,18,11.10
2018,07,03,07,19,11.20
2018,07,03,07,20,11.20
2018,07,03,07,21,11.30
2018,07,03,07,22,11.40
2018,07,03,07,23,11.60
2018,07,03,07,24,11.70
2018,07,03,07,25,11.70
2018,07,03,07,26,11.80
2018,07,03,07,27,11.80
2018,07,03,07,28,11.90
2018,07,03,07,29,11.90
2018,07,03,07,30,12.00
2018,07,03,07,31,12.00
2018,07,03,07,32,12.10
2018,07,03,07,33,12.10
2018,07,03,07,34,12.20
2018,07,03,07,35,12.30
2018,07,03,07,36,12.40
2018,07,03,07,37,12.50
2018,07,03,07,38,12.60
2018,07,03,07,39,12.60
2018,07,03,07,40,12.70
2018,07,03,07,41,12.80
2018,07,03,07,42,12.80
2018,07,03,07,43,12.90
2018,07,03,07,44,12.90
2018,07,03,07,45,12.90
2018,07,03,07,46,13.00
2018,07,03,07,47,13.00
2018,07,03,07,48,13.10
2018,07,03,07,49,13.10
2018,07,03,07,50,13.10
2018,07,03,07,51,13.20
2018,07,03,07,52,13.20
2018,07,03,07,53,13.20
2018,07,03,07,54,13.30
2018,07,03,07,55,13.30
2018,07,03,07,56,13.30
2018,07,03,07,57,13.40
2018,07,03,07,58,13.40
2018,07,03,07,59,13.50
2018,07,03,08,00,13.50
2018,07,03,08,01,13.60
2018,07,03,08,02,13.60
2018,07,03,08,03,13.60
2018,07,03,08,04,13.70
2018,07,03,08,05,13.70
2018,07,03,08,06,13.70
2018,07,03,08,07,13.70
2018,07,03,08,08,13.70
2018,07,03,08,09,13.70
2018,07,03,08,10,13.80
2018,07,03,08,11,13.80
2018,07,03,08,12,13.90
2018,07,03,08,13,13.90
2018,07,03,08,14,14.00
2018,07,03,08,15,14.00
2018,07,03,08,16,14.00
2018,07,03,08,17,14.10
2018,07,03,08,18,14.10
2018,07,03,08,19,14.10
2018,07,03,08,20,14.20
2018,07,03,08,21,14.30
2018,07,03,08,22,14.40
2018,07,03,08,23,14.50
2018,07,03,08,24,14.60
2018,07,03,08,25,14.60
2018,07,03,08,26,14.70
2018,07,03,08,27,14.80
2018,07,03,08,28,14.90
2018,07,03,08,29,15.00
2018,07,03,08,30,15.10
2018,07,03,08,31,15.10
2018,07,03,08,32,15.20
2018,07,03,08,33,15.20
2018,07,03,08,34,15.10
2018,07,03,08,35,15.20
2018,07,03,08,36,15.20
2018,07,03,08,37,15.30
2018,07,03,08,38,15.30
2018,07,03,08,39,15.30
2018,07,03,08,40,15.30
2018,07,03,08,41,15.30
2018,07,03,08,42,15.40
2018,07,03,08,43,15.40
2018,07,03,08,44,15.30
2018,07,03,08,45,15.30
2018,07,03,08,46,15.30
2018,07,03,08,47,15.30
2018,07,03,08,48,15.40
2018,07,03,08,49,15.30
2018,07,03,08,50,15.30
2018,07,03,08,51,15.30
2018,07,03,08,52,15.40
2018,07,03,08,53,15.40
2018,07,03,08,54,15.40
2018,07,03,08,55,15.40
2018,07,03,08,56,15.30
2018,07,03,08,57,15.30
2018,07,03,08,58,15.40
2018,07,03,08,59,15.40
2018,07,03,09,00,15.50
2018,07,03,09,01,15.50
2018,07,03,09,02,15.60
2018,07,03,09,03,15.60
2018,07,03,09,04,15.70
2018,07,03,09,05,15.70
2018,07,03,09,06,15.80
2018,07,03,09,07,15.80
2018,07,03,09,08,15.80
2018,07,03,09,09,15.80
2018,07,03,09,10,15.80
2018,07,03,09,11,15.80
2018,07,03,09,12,15.90
2018,07,03,09,13,15.80
2018,07,03,09,14,15.80
2018,07,03,09,15,15.70
2018,07,03,09,16,15.70
2018,07,03,09,17,15.60
2018,07,03,09,18,15.60
2018,07,03,09,19,15.60
2018,07,03,09,20,15.70
2018,07,03,09,21,15.70
2018,07,03,09,22,15.80
2018,07,03,09,23,15.80
2018,07,03,09,24,15.90
2018,07,03,09,25,15.90
2018,07,03,09,26,15.90
2018,07,03,09,27,15.90
2018,07,03,09,28,15.90
2018,07,03,09,29,15.80
2018,07,03,09,30,15.80
2018,07,03,09,31,15.80
2018,07,03,09,32,15.80
2018,07,03,09,33,15.80
2018,07,03,09,34,15.90
2018,07,03,09,35,16.00
2018,07,03,09,36,16.10
2018,07,03,09,37,16.20
2018,07,03,09,38,16.20
2018,07,03,09,39,16.20
2018,07,03,09,40,16.20
2018,07,03,09,41,16.20
2018,07,03,09,42,16.20
2018,07,03,09,43,16.30
2018,07,03,09,44,16.50
2018,07,03,09,45,16.50
2018,07,03,09,46,16.50
2018,07,03,09,47,16.40
2018,07,03,09,48,16.30
2018,07,03,09,49,16.30
2018,07,03,09,50,16.40
2018,07,03,09,51,16.40
2018,07,03,09,52,16.30
2018,07,03,09,53,16.30
2018,07,03,09,54,16.30
2018,07,03,09,55,16.40
2018,07,03,09,56,16.50
2018,07,03,09,57,16.50
2018,07,03,09,58,16.60
2018,07,03,09,59,16.60
2018,07,03,10,00,16.50
2018,07,03,10,01,16.40
2018,07,03,10,02,16.40
2018,07,03,10,03,16.40
2018,07,03,10,04,16.40
2018,07,03,10,05,16.40
2018,07,03,10,06,16.50
2018,07,03,10,07,16.50
2018,07,03,10,08,16.50
2018,07,03,10,09,16.60
2018,07,03,10,10,16.60
2018,07,03,10,11,16.60
2018,07,03,10,12,16.70
2018,07,03,10,13,16.80
2018,07,03,10,14,16.90
2018,07,03,10,15,17.00
2018,07,03,10,16,17.00
2018,07,03,10,17,17.00
2018,07,03,10,18,17.00
2018,07,03,10,19,17.00
2018,07,03,10,20,17.00
2018,07,03,10,21,17.10
2018,07,03,10,22,17.10
2018,07,03,10,23,17.00
2018,07,03,10,24,17.00
2018,07,03,10,25,17.10
2018,07,03,10,26,17.10
2018,07,03,10,27,17.10
2018,07,03,10,28,17.10
2018,07,03,10,29,17.20
2018,07,03,10,30,17.30
2018,07,03,10,31,17.40
2018,07,03,10,32,17.40
2018,07,03,10,33,17.50
2018,07,03,10,34,17.40
2018,07,03,10,35,17.30
2018,07,03,10,36,17.20
2018,07,03,10,37,17.10
2018,07,03,10,38,17.10
2018,07,03,10,39,17.10
2018,07,03,10,40,17.20
2018,07,03,10,41,17.10
2018,07,03,10,42,17.10
2018,07,03,10,43,17.00
2018,07,03,10,44,16.90
2018,07,03,10,45,17.00
2018,07,03,10,46,17.00
2018,07,03,10,47,17.10
2018,07,03,10,48,17.10
2018,07,03,10,49,17.00
2018,07,03,10,50,17.00
2018,07,03,10,51,17.10
2018,07,03,10,52,17.20
2018,07,03,10,53,17.30
2018,07,03,10,54,17.50
2018,07,03,10,55,17.50
2018,07,03,10,56,17.50
2018,07,03,10,57,17.40
2018,07,03,10,58,17.30
2018,07,03,10,59,17.40
2018,07,03,11,00,17.50
2018,07,03,11,01,17.60
2018,07,03,11,02,17.70
2018,07,03,11,03,17.50
2018,07,03,11,04,17.40
2018,07,03,11,05,17.30
2018,07,03,11,06,17.20
2018,07,03,11,07,17.20
2018,07,03,11,08,17.20
2018,07,03,11,09,17.30
2018,07,03,11,10,17.30
2018,07,03,11,11,17.40
2018,07,03,11,12,17.40
2018,07,03,11,13,17.40
2018,07,03,11,14,17.40
2018,07,03,11,15,17.50
2018,07,03,11,16,17.60
2018,07,03,11,17,17.80
2018,07,03,11,18,17.80
2018,07,03,11,19,17.90
2018,07,03,11,20,17.90
2018,07,03,11,21,17.90
2018,07,03,11,22,17.80
2018,07,03,11,23,17.80
2018,07,03,11,24,17.70
2018,07,03,11,25,17.70
2018,07,03,11,26,17.60
2018,07,03,11,27,17.60
2018,07,03,11,28,17.60
2018,07,03,11,29,17.70
2018,07,03,11,30,17.80
2018,07,03,11,31,17.90
2018,07,03,11,32,18.00
2018,07,03,11,33,18.20
2018,07,03,11,34,18.30
2018,07,03,11,35,18.40
2018,07,03,11,36,18.40
2018,07,03,11,37,18.40
2018,07,03,11,38,18.50
2018,07,03,11,39,18.60
2018,07,03,11,40,18.40
2018,07,03,11,41,18.30
2018,07,03,11,42,18.20
2018,07,03,11,43,18.00
2018,07,03,11,44,17.90
2018,07,03,11,45,17.90
2018,07,03,11,46,18.10
2018,07,03,11,47,18.20
2018,07,03,11,48,18.20
2018,07,03,11,49,18.30
2018,07,03,11,50,18.10
2018,07,03,11,51,18.00
2018,07,03,11,52,17.90
2018,07,03,11,53,17.90
2018,07,03,11,54,18.00
2018,07,03,11,55,18.10
2018,07,03,11,56,18.10
2018,07,03,11,57,18.20
2018,07,03,11,58,18.30
2018,07,03,11,59,18.30
2018,07,03,12,00,18.20
2018,07,03,12,01,18.20
2018,07,03,12,02,18.30
2018,07,03,12,03,18.40
2018,07,03,12,04,18.50
2018,07,03,12,05,18.60
2018,07,03,12,06,18.70
2018,07,03,12,07,18.80
2018,07,03,12,08,18.90
2018,07,03,12,09,18.90
2018,07,03,12,10,18.90
2018,07,03,12,11,18.90
2018,07,03,12,12,18.90
2018,07,03,12,13,19.00
2018,07,03,12,14,19.10
2018,07,03,12,15,19.10
2018,07,03,12,16,19.10
2018,07,03,12,17,19.10
2018,07,03,12,18,19.10
2018,07,03,12,19,18.90
2018,07,03,12,20,18.90
2018,07,03,12,21,18.80
2018,07,03,12,22,18.80
2018,07,03,12,23,18.90
2018,07,03,12,24,19.00
2018,07,03,12,25,19.20
2018,07,03,12,26,19.30
2018,07,03,12,27,19.40
2018,07,03,12,28,19.50
2018,07,03,12,29,19.70
2018,07,03,12,30,19.80
2018,07,03,12,31,19.80
2018,07,03,12,32,19.70
2018,07,03,12,33,19.40
2018,07,03,12,34,19.40
2018,07,03,12,35,19.40
2018,07,03,12,36,19.20
2018,07,03,12,37,19.10
2018,07,03,12,38,19.00
2018,07,03,12,39,19.00
2018,07,03,12,40,19.00
2018,07,03,12,41,19.10
2018,07,03,12,42,19.20
2018,07,03,12,43,19.30
2018,07,03,12,44,19.40
2018,07,03,12,45,19.40
2018,07,03,12,46,19.30
2018,07,03,12,47,19.30
2018,07,03,12,48,19.20
2018,07,03,12,49,19.20
2018,07,03,12,50,19.10
2018,07,03,12,51,19.10
2018,07,03,12,52,19.10
2018,07,03,12,53,19.10
2018,07,03,12,54,19.00
2018,07,03,12,55,19.00
2018,07,03,12,56,19.10
2018,07,03,12,57,19.00
2018,07,03,12,58,18.90
2018,07,03,12,59,18.90
2018,07,03,13,00,18.90
2018,07,03,13,01,19.00
2018,07,03,13,02,19.10
2018,07,03,13,03,19.00
2018,07,03,13,04,19.00
2018,07,03,13,05,18.80
2018,07,03,13,06,18.70
2018,07,03,13,07,18.70
2018,07,03,13,08,18.70
2018,07,03,13,09,18.70
2018,07,03,13,10,18.70
2018,07,03,13,11,18.50
2018,07,03,13,12,18.50
2018,07,03,13,13,18.40
2018,07,03,13,14,18.30
2018,07,03,13,15,18.20
2018,07,03,13,16,18.00
2018,07,03,13,17,17.90
2018,07,03,13,18,18.10
2018,07,03,13,19,18.20
2018,07,03,13,20,18.30
2018,07,03,13,21,18.50
2018,07,03,13,22,18.50
2018,07,03,13,23,18.40
2018,07,03,13,24,18.30
2018,07,03,13,25,18.20
2018,07,03,13,26,18.20
2018,07,03,13,27,18.40
2018,07,03,13,28,18.40
2018,07,03,13,29,18.50
2018,07,03,13,30,18.60
2018,07,03,13,31,18.70
2018,07,03,13,32,18.70
2018,07,03,13,33,18.70
2018,07,03,13,34,18.60
2018,07,03,13,35,18.60
2018,07,03,13,36,18.60
2018,07,03,13,37,18.50
2018,07,03,13,38,18.60
2018,07,03,13,39,18.70
2018,07,03,13,40,18.70
2018,07,03,13,41,18.70
2018,07,03,13,42,18.50
2018,07,03,13,43,18.40
2018,07,03,13,44,18.50
2018,07,03,13,45,18.60
2018,07,03,13,46,18.50
2018,07,03,13,47,18.40
2018,07,03,13,48,18.30
2018,07,03,13,49,18.40
2018,07,03,13,50,18.40
2018,07,03,13,51,18.40
2018,07,03,13,52,18.40
2018,07,03,13,53,18.40
2018,07,03,13,54,18.50
2018,07,03,13,55,18.60
2018,07,03,13,56,18.60
2018,07,03,13,57,18.70
2018,07,03,13,58,18.80
2018,07,03,13,59,18.80
2018,07,03,14,00,18.80
2018,07,03,14,01,18.80
2018,07,03,14,02,18.80
2018,07,03,14,03,18.80
2018,07,03,14,04,18.70
2018,07,03,14,05,18.70
2018,07,03,14,06,18.70
2018,07,03,14,07,18.70
2018,07,03,14,08,18.70
2018,07,03,14,09,18.70
2018,07,03,14,10,18.70
2018,07,03,14,11,18.80
2018,07,03,14,12,18.80
2018,07,03,14,13,18.90
2018,07,03,14,14,18.90
2018,07,03,14,15,18.90
2018,07,03,14,16,18.90
2018,07,03,14,17,18.90
2018,07,03,14,18,18.90
2018,07,03,14,19,18.90
2018,07,03,14,20,18.70
2018,07,03,14,21,18.50
2018,07,03,14,22,18.30
2018,07,03,14,23,18.20
2018,07,03,14,24,18.10
2018,07,03,14,25,18.10
2018,07,03,14,26,18.10
2018,07,03,14,27,18.10
2018,07,03,14,28,18.10
2018,07,03,14,29,18.10
2018,07,03,14,30,18.20
2018,07,03,14,31,18.20
2018,07,03,14,32,18.30
2018,07,03,14,33,18.50
2018,07,03,14,34,18.60
2018,07,03,14,35,18.60
2018,07,03,14,36,18.70
2018,07,03,14,37,18.70
2018,07,03,14,38,18.70
2018,07,03,14,39,18.60
2018,07,03,14,40,18.40
2018,07,03,14,41,18.40
2018,07,03,14,42,18.40
2018,07,03,14,43,18.40
2018,07,03,14,44,18.40
2018,07,03,14,45,18.40
2018,07,03,14,46,18.50
2018,07,03,14,47,18.60
2018,07,03,14,48,18.70
2018,07,03,14,49,18.80
2018,07,03,14,50,18.80
2018,07,03,14,51,18.80
2018,07,03,14,52,18.80
2018,07,03,14,53,18.80
2018,07,03,14,54,18.70
2018,07,03,14,55,18.70
2018,07,03,14,56,18.60
2018,07,03,14,57,18.60
2018,07,03,14,58,18.60
2018,07,03,14,59,18.60
2018,07,03,15,00,18.60
2018,07,03,15,01,18.70
2018,07,03,15,02,18.90
2018,07,03,15,03,19.00
2018,07,03,15,04,19.10
2018,07,03,15,05,19.20
2018,07,03,15,06,19.20
2018,07,03,15,07,19.20
2018,07,03,15,08,19.20
2018,07,03,15,09,19.30
2018,07,03,15,10,19.30
2018,07,03,15,11,19.30
2018,07,03,15,12,19.30
2018,07,03,15,13,19.20
2018,07,03,15,14,19.20
2018,07,03,15,15,19.30
2018,07,03,15,16,19.30
2018,07,03,15,17,19.20
2018,07,03,15,18,19.10
2018,07,03,15,19,19.10
2018,07,03,15,20,19.00
2018,07,03,15,21,19.10
2018,07,03,15,22,19.10
2018,07,03,15,23,19.00
2018,07,03,15,24,19.00
2018,07,03,15,25,19.00
2018,07,03,15,26,19.00
2018,07,03,15,27,19.20
2018,07,03,15,28,19.30
2018,07,03,15,29,19.40
2018,07,03,15,30,19.20
2018,07,03,15,31,19.10
2018,07,03,15,32,19.10
2018,07,03,15,33,19.10
2018,07,03,15,34,19.20
2018,07,03,15,35,19.20
2018,07,03,15,36,19.30
2018,07,03,15,37,19.30
2018,07,03,15,38,19.30
2018,07,03,15,39,19.40
2018,07,03,15,40,19.40
2018,07,03,15,41,19.40
2018,07,03,15,42,19.30
2018,07,03,15,43,19.20
2018,07,03,15,44,19.10
2018,07,03,15,45,19.10
2018,07,03,15,46,19.10
2018,07,03,15,47,19.10
2018,07,03,15,48,19.20
2018,07,03,15,49,19.20
2018,07,03,15,50,19.20
2018,07,03,15,51,19.20
2018,07,03,15,52,19.30
2018,07,03,15,53,19.40
2018,07,03,15,54,19.40
2018,07,03,15,55,19.30
2018,07,03,15,56,19.30
2018,07,03,15,57,19.20
2018,07,03,15,58,19.30
2018,07,03,15,59,19.30
2018,07,03,16,00,19.30
2018,07,03,16,01,19.30
2018,07,03,16,02,19.20
2018,07,03,16,03,19.20
2018,07,03,16,04,19.30
2018,07,03,16,05,19.40
2018,07,03,16,06,19.40
2018,07,03,16,07,19.50
2018,07,03,16,08,19.50
2018,07,03,16,09,19.40
2018,07,03,16,10,19.30
2018,07,03,16,11,19.30
2018,07,03,16,12,19.20
2018,07,03,16,13,19.10
2018,07,03,16,14,19.10
2018,07,03,16,15,19.10
2018,07,03,16,16,19.10
2018,07,03,16,17,19.10
2018,07,03,16,18,19.00
2018,07,03,16,19,19.00
2018,07,03,16,20,19.20
2018,07,03,16,21,19.30
2018,07,03,16,22,19.30
2018,07,03,16,23,19.40
2018,07,03,16,24,19.40
2018,07,03,16,25,19.50
2018,07,03,16,26,19.60
2018,07,03,16,27,19.70
2018,07,03,16,28,19.80
2018,07,03,16,29,19.70
2018,07,03,16,30,19.60
2018,07,03,16,31,19.60
2018,07,03,16,32,19.60
2018,07,03,16,33,19.70
2018,07,03,16,34,19.70
2018,07,03,16,35,19.70
2018,07,03,16,36,19.60
2018,07,03,16,37,19.60
2018,07,03,16,38,19.50
2018,07,03,16,39,19.40
2018,07,03,16,40,19.40
2018,07,03,16,41,19.40
2018,07,03,16,42,19.60
2018,07,03,16,43,19.70
2018,07,03,16,44,19.80
2018,07,03,16,45,19.80
2018,07,03,16,46,19.70
2018,07,03,16,47,19.60
2018,07,03,16,48,19.60
2018,07,03,16,49,19.60
2018,07,03,16,50,19.60
2018,07,03,16,51,19.60
2018,07,03,16,52,19.60
2018,07,03,16,53,19.60
2018,07,03,16,54,19.70
2018,07,03,16,55,19.80
2018,07,03,16,56,19.90
2018,07,03,16,57,20.00
2018,07,03,16,58,20.00
2018,07,03,16,59,20.00
2018,07,03,17,00,20.00
2018,07,03,17,01,20.10
2018,07,03,17,02,20.10
2018,07,03,17,03,20.10
2018,07,03,17,04,20.00
2018,07,03,17,05,20.00
2018,07,03,17,06,20.00
2018,07,03,17,07,20.10
2018,07,03,17,08,20.10
2018,07,03,17,09,20.10
2018,07,03,17,10,20.10
2018,07,03,17,11,20.00
2018,07,03,17,12,19.90
2018,07,03,17,13,19.80
2018,07,03,17,14,19.80
2018,07,03,17,15,19.90
2018,07,03,17,16,19.90
2018,07,03,17,17,19.90
2018,07,03,17,18,19.90
2018,07,03,17,19,19.90
2018,07,03,17,20,19.90
2018,07,03,17,21,19.80
2018,07,03,17,22,19.80
2018,07,03,17,23,19.80
2018,07,03,17,24,19.80
2018,07,03,17,25,19.80
2018,07,03,17,26,19.70